Location: Bourg-d�Oueil
(42.8588°N, 0.4991°E)
Time: 04:42:36
(UTC+00:00)

Cosmos 1980 Rocket - Visible Passes

Search period start: 26 October 2021 00:00
Search period end: 05 November 2021 00:00
Orbit: 827 x 851 km, 71.0° (Epoch: 25 October)

Date Brightness Start Highest point End Pass type
(mag) Time Alt. Az. Time Alt. Az. Time Alt. Az.
26 Oct 4.6 18:08:56 10° W 18:12:54 19° NW 18:16:53 10° N visible
27 Oct 4.6 17:53:00 10° W 17:57:07 20° NW 18:01:15 10° N visible
28 Oct 4.5 17:37:06 10° W 17:41:20 21° NW 17:45:36 10° N visible
29 Oct 4.4 17:21:12 10° W 17:25:33 22° NW 17:29:57 10° N visible
